GW1172 Weather Reports


time (UTC)temp
C
wind
direction
speed
KPH
gust
KPH
rain 1hr
cm
rain 24hr
cm
rain mn
cm
humidity
%
barometer
mb
20260510141549 20 46 4.8 14.5 0.00 0.00 0.00 76 1017.7
20260510140041 20 0 0.0 3.2 0.00 0.00 0.00 79 1017.7
20260510134537 19 0 0.0 1.6 0.00 0.00 0.00 81 1017.3
20260510133049 19 0 0.0 6.4 0.00 0.00 0.00 81 1016.8
20260510131538 18 0 0.0 1.6 0.00 0.00 0.00 85 1016.8
20260510130038 17 0 0.0 3.2 0.00 0.00 0.00 87 1016.4
20260510124543 17 213 0.0 0.0 0.00 0.00 0.00 92 1016.3
20260510123056 16 0 0.0 0.0 0.00 0.00 0.00 92 1015.8
20260510121537 16 0 0.0 0.0 0.00 0.00 0.00 91 1015.8
20260510120039 16 0 0.0 0.0 0.00 0.00 0.00 91 1015.9
20260510114537 16 0 0.0 0.0 0.00 0.00 0.00 89 1015.7
20260510113045 16 0 0.0 0.0 0.00 0.00 0.00 88 1015.7
20260510111543 16 0 0.0 0.0 0.00 0.00 0.00 87 1015.4
20260510110039 16 0 0.0 0.0 0.00 0.00 0.00 87 1015.0
20260510104544 16 0 0.0 0.0 0.00 0.00 0.00 87 1015.3
20260510103046 16 0 0.0 0.0 0.00 0.00 0.00 87 1015.3
20260510101543 16 0 0.0 0.0 0.00 0.00 0.00 86 1014.8
20260510100043 16 0 0.0 0.0 0.00 0.00 0.00 87 1014.7
20260510094541 16 0 0.0 0.0 0.00 0.00 0.00 85 1014.3
20260510093047 16 0 0.0 0.0 0.00 0.00 0.00 84 1014.1
20260510091539 16 0 0.0 0.0 0.00 0.00 0.00 84 1013.9
20260510090048 16 0 0.0 0.0 0.00 0.00 0.00 85 1013.8
20260510084546 16 0 0.0 0.0 0.00 0.00 0.00 84 1014.2
20260510083042 16 0 0.0 0.0 0.00 0.00 0.00 87 1013.8
20260510081544 16 0 0.0 0.0 0.00 0.00 0.00 88 1013.5
20260510080050 16 0 0.0 0.0 0.00 0.00 0.00 88 1013.4
20260510074549 16 0 0.0 0.0 0.00 0.00 0.00 87 1013.6
20260510073051 16 0 0.0 0.0 0.00 0.00 0.00 87 1013.5
20260510071553 16 0 0.0 0.0 0.00 0.00 0.00 86 1013.5
20260510070045 16 0 0.0 0.0 0.00 0.00 0.00 84 1013.5
20260510064550 16 0 0.0 0.0 0.00 0.00 0.00 83 1013.7
20260510063043 16 0 0.0 0.0 0.00 0.00 0.00 82 1013.8
20260510061550 16 0 0.0 0.0 0.00 0.00 0.00 80 1013.9
20260510060039 16 0 0.0 0.0 0.00 0.00 0.00 79 1013.9
20260510054544 16 0 0.0 0.0 0.00 0.00 0.00 79 1013.8
20260510053042 16 0 0.0 0.0 0.00 0.00 0.00 78 1013.8
20260510051544 16 0 0.0 0.0 0.00 0.00 0.00 75 1013.8
20260510050049 17 0 0.0 0.0 0.00 0.00 0.00 73 1013.8
20260510044610 17 0 0.0 0.0 0.00 0.00 0.00 74 1013.7
20260510043038 17 0 0.0 0.0 0.00 0.00 0.00 73 1013.6
20260510041537 17 0 0.0 0.0 0.00 0.00 0.00 72 1013.7
20260510040050 18 0 0.0 0.0 0.00 0.00 0.00 70 1013.3
20260510034543 18 0 0.0 0.0 0.00 0.00 0.00 69 1013.1
20260510033042 19 0 0.0 0.0 0.00 0.00 0.00 69 1012.9
20260510031550 19 0 0.0 0.0 0.00 0.00 0.00 69 1012.8
20260510030044 19 0 0.0 0.0 0.00 0.00 0.00 69 1012.8
20260510024548 19 0 0.0 0.0 0.00 0.00 0.00 67 1012.3
20260510023042 20 0 0.0 0.0 0.00 0.00 0.00 67 1012.1
20260510021540 20 0 0.0 0.0 0.00 0.00 0.00 66 1011.6
20260510020038 20 0 0.0 0.0 0.00 0.00 0.00 63 1011.3
20260510014540 21 0 0.0 0.0 0.00 0.00 0.00 62 1011.1
20260510013044 21 0 0.0 0.0 0.00 0.00 0.00 63 1010.9
20260510011546 21 0 0.0 0.0 0.00 0.00 0.00 60 1010.7
20260510010048 22 0 0.0 0.0 0.00 0.00 0.00 59 1010.7
20260510004542 23 0 0.0 0.0 0.00 0.00 0.00 58 1010.6
20260510003041 23 0 0.0 0.0 0.00 0.00 0.00 55 1010.4
20260510001552 25 0 0.0 0.0 0.00 0.00 0.00 51 1010.4
20260510000040 27 0 0.0 0.0 0.00 0.00 0.00 46 1010.4
20260509234542 28 0 0.0 0.0 0.00 0.00 0.00 43 1010.3
20260509233051 28 0 0.0 1.6 0.00 0.00 0.00 44 1010.4
20260509231549 28 0 1.6 6.4 0.00 0.00 0.00 38 1010.4
20260509230043 28 0 0.0 4.8 0.00 0.00 0.00 41 1010.4
20260509224557 28 0 0.0 3.2 0.00 0.00 0.00 41 1010.3
20260509223048 28 0 0.0 6.4 0.00 0.00 0.00 38 1010.3
20260509221547 28 0 0.0 11.3 0.00 0.00 0.00 40 1010.3
20260509220039 29 0 0.0 4.8 0.00 0.00 0.00 42 1010.4
20260509214537 28 0 0.0 12.9 0.00 0.00 0.00 40 1010.4
20260509213043 28 252 1.6 12.9 0.00 0.00 0.00 38 1010.5
20260509211546 29 0 0.0 9.7 0.00 0.00 0.00 38 1010.5
20260509210049 29 205 1.6 11.3 0.00 0.00 0.00 46 1010.7
20260509204547 28 190 0.0 14.5 0.00 0.00 0.00 44 1010.6
20260509203043 28 259 3.2 11.3 0.00 0.00 0.00 39 1010.8
20260509201554 28 0 3.2 14.5 0.00 0.00 0.00 42 1010.9
20260509200050 28 0 0.0 11.3 0.00 0.00 0.00 42 1011.1
20260509194545 28 229 6.4 16.1 0.00 0.00 0.00 47 1011.4
20260509193045 28 209 1.6 11.3 0.00 0.00 0.00 43 1011.4
20260509191537 28 292 0.0 11.3 0.00 0.00 0.00 43 1011.5
20260509190043 27 0 0.0 4.8 0.00 0.00 0.00 41 1011.6
20260509184539 27 107 0.0 4.8 0.00 0.00 0.00 39 1011.6
20260509183040 27 0 0.0 4.8 0.00 0.00 0.00 45 1011.6
20260509181539 26 0 0.0 11.3 0.00 0.00 0.00 49 1011.6
20260509180047 26 0 0.0 4.8 0.00 0.00 0.00 51 1011.8
20260509174540 26 240 0.0 4.8 0.00 0.00 0.00 56 1011.9
20260509173039 26 0 1.6 9.7 0.00 0.00 0.00 57 1012.0
20260509171543 25 0 3.2 11.3 0.00 0.00 0.00 59 1012.1
20260509170044 25 0 0.0 8.0 0.00 0.00 0.00 60 1012.2
20260509164550 24 0 0.0 6.4 0.00 0.00 0.00 65 1012.3
20260509163039 23 0 0.0 9.7 0.00 0.00 0.00 64 1012.3
20260509161556 23 271 1.6 11.3 0.00 0.00 0.00 70 1012.3
20260509160039 22 0 0.0 6.4 0.00 0.00 0.00 72 1012.3
20260509154550 22 215 0.0 6.4 0.00 0.00 0.00 74 1012.3
20260509153047 21 0 0.0 4.8 0.00 0.00 0.00 77 1012.1
20260509151539 20 202 0.0 6.4 0.00 0.00 0.00 79 1012.2
20260509150048 19 0 0.0 3.2 0.00 0.00 0.00 80 1012.0
20260509144547 18 285 0.0 4.8 0.00 0.00 0.00 82 1012.1
20260509143048 18 0 0.0 1.6 0.00 0.00 0.00 83 1012.2